This is the latest recevied weather packets stored in our database for station/object K3HW. If no packets are shown the sender has not sent any weather packets the latest 10 day(s).
| Time | Temp. | Humidity | Pressure | Rain* | Wind** | Luminosity | Snow |
|---|---|---|---|---|---|---|---|
| 1777652666 | 15° C | 49% | 1016.7 hPa | 0 mm | - | 755 W/m² | - |
| 1777652060 | 15° C | 47% | 1016.8 hPa | 0 mm | - | 750 W/m² | - |
| 1777651756 | 15° C | 45% | 1016.8 hPa | 0 mm | - | 748 W/m² | - |
| 1777650848 | 15° C | 45% | 1017.1 hPa | 0 mm | - | 735 W/m² | - |
| 1777650242 | 15° C | 47% | 1017.1 hPa | 0 mm | - | 721 W/m² | - |
| 1777649939 | 14.44° C | 45% | 1017.3 hPa | 0 mm | - | 718 W/m² | - |
| 1777649636 | 15° C | 47% | 1017.2 hPa | 0 mm | - | 711 W/m² | - |
| 1777649331 | 14.44° C | 49% | 1017.3 hPa | 0 mm | - | 701 W/m² | - |
| 1777649029 | 14.44° C | 49% | 1017.3 hPa | 0 mm | - | 694 W/m² | - |
| 1777648727 | 13.89° C | 47% | 1017.3 hPa | 0 mm | - | 687 W/m² | - |
| 1777648422 | 14.44° C | 50% | 1017.3 hPa | 0 mm | - | 676 W/m² | - |
| 1777648119 | 13.89° C | 49% | 1017.3 hPa | 0 mm | - | 218 W/m² | - |
| 1777647815 | 13.33° C | 50% | 1017.2 hPa | 0 mm | - | 561 W/m² | - |
| 1777647209 | 13.33° C | 53% | 1017.2 hPa | 0 mm | - | 119 W/m² | - |
| 1777646906 | 13.33° C | 54% | 1017.1 hPa | 0 mm | - | 57 W/m² | - |
| 1777646298 | 12.22° C | 57% | 1017.3 hPa | 0 mm | - | 118 W/m² | - |
| 1777645995 | 12.78° C | 53% | 1017.4 hPa | 0 mm | - | 53 W/m² | - |
| 1777645692 | 12.78° C | 56% | 1017.5 hPa | 0 mm | - | 95 W/m² | - |
| 1777645388 | 12.22° C | 59% | 1017.4 hPa | 0 mm | - | 72 W/m² | - |
| 1777645083 | 12.78° C | 59% | 1017.3 hPa | 0 mm | - | 59 W/m² | - |
| 1777644780 | 11.67° C | 59% | 1017.6 hPa | 0 mm | - | 181 W/m² | - |
| 1777644478 | 12.22° C | 58% | 1017.6 hPa | 0 mm | - | 143 W/m² | - |
| 1777644174 | 11.67° C | 60% | 1017.5 hPa | 0 mm | - | 138 W/m² | - |
| 1777643870 | 11.67° C | 60% | 1017.6 hPa | 0 mm | - | 49 W/m² | - |
| 1777643569 | 11.67° C | 61% | 1017.7 hPa | 0 mm | - | 55 W/m² | - |
* Rain latest hour (hover to see other rain measurements)
** Current wind speed in m/s (hover to see current wind gust speed)